Previsão horária em Cayo Santa María

Hoje, 1 Agosto, Domingo

Tempo Temperatura Precipitação Vento Pressão Humidade
00:00 +27°C° 0.2 mm 6 m/s 762 mmHg 93%
01:00 +27°C° 0 mm 6 m/s 762 mmHg 94%
02:00 +27°C° 0.1 mm 5 m/s 762 mmHg 94%
03:00 +27°C° 0.1 mm 5 m/s 762 mmHg 95%
04:00 +26°C° 0.1 mm 5 m/s 761 mmHg 95%
05:00 +27°C° 0.1 mm 5 m/s 762 mmHg 93%
06:00 +27°C° 0.1 mm 5 m/s 762 mmHg 92%
07:00 +28°C° 0 mm 6 m/s 762 mmHg 91%
08:00 +29°C° 0 mm 5 m/s 762 mmHg 83%
09:00 +32°C° 0 mm 5 m/s 763 mmHg 75%
10:00 +34°C° 0 mm 5 m/s 763 mmHg 68%
11:00 +34°C° 0 mm 5 m/s 763 mmHg 64%
12:00 +35°C° 0 mm 6 m/s 763 mmHg 59%
13:00 +36°C° 0 mm 6 m/s 762 mmHg 55%
14:00 +35°C° 0 mm 6 m/s 762 mmHg 60%
15:00 +34°C° 0 mm 6 m/s 762 mmHg 66%
16:00 +33°C° 0 mm 7 m/s 762 mmHg 72%
17:00 +32°C° 0 mm 7 m/s 762 mmHg 76%
18:00 +30°C° 0 mm 6 m/s 762 mmHg 80%
19:00 +29°C° 0 mm 6 m/s 762 mmHg 84%
20:00 +28°C° 0 mm 6 m/s 762 mmHg 86%
21:00 +28°C° 0 mm 6 m/s 763 mmHg 88%
22:00 +27°C° 0 mm 6 m/s 763 mmHg 90%
23:00 +27°C° 0 mm 6 m/s 762 mmHg 92%

Amanhã, 2 Agosto, Segunda-feira

Tempo Temperatura Precipitação Vento Pressão Humidade
00:00 +27°C° 0 mm 6 m/s 762 mmHg 93%
01:00 +27°C° 0 mm 6 m/s 761 mmHg 94%
02:00 +27°C° 0 mm 5 m/s 761 mmHg 94%
03:00 +27°C° 0 mm 5 m/s 761 mmHg 95%
04:00 +27°C° 0 mm 4 m/s 761 mmHg 95%
05:00 +27°C° 0 mm 4 m/s 762 mmHg 94%
06:00 +27°C° 0 mm 4 m/s 762 mmHg 93%
07:00 +28°C° 0 mm 3 m/s 762 mmHg 92%
08:00 +29°C° 0.4 mm 3 m/s 762 mmHg 86%
09:00 +31°C° 0.4 mm 3 m/s 763 mmHg 80%
10:00 +33°C° 0.4 mm 3 m/s 763 mmHg 73%
11:00 +34°C° 0.1 mm 3 m/s 763 mmHg 70%
12:00 +34°C° 0.1 mm 4 m/s 762 mmHg 67%
13:00 +35°C° 0.1 mm 4 m/s 762 mmHg 64%
14:00 +34°C° 0.1 mm 4 m/s 762 mmHg 66%
15:00 +34°C° 0.1 mm 5 m/s 761 mmHg 68%
16:00 +34°C° 0.1 mm 5 m/s 761 mmHg 70%
17:00 +32°C° 0 mm 5 m/s 761 mmHg 76%
18:00 +30°C° 0 mm 6 m/s 761 mmHg 82%
19:00 +29°C° 0 mm 6 m/s 761 mmHg 88%
20:00 +28°C° 0.1 mm 6 m/s 761 mmHg 89%
21:00 +28°C° 0.1 mm 6 m/s 762 mmHg 90%
22:00 +27°C° 0.1 mm 6 m/s 762 mmHg 91%
23:00 +27°C° 0 mm 6 m/s 762 mmHg 92%

Depois de amanhã, 3 Agosto, Terça-feira

Tempo Temperatura Precipitação Vento Pressão Humidade
00:00 +27°C° 0 mm 6 m/s 761 mmHg 93%
01:00 +26°C° 0 mm 6 m/s 761 mmHg 93%
02:00 +26°C° 0 mm 6 m/s 761 mmHg 93%
03:00 +26°C° 0 mm 6 m/s 760 mmHg 93%
04:00 +26°C° 0 mm 6 m/s 760 mmHg 94%
05:00 +26°C° 0 mm 6 m/s 760 mmHg 93%
06:00 +27°C° 0 mm 6 m/s 761 mmHg 92%
07:00 +28°C° 0 mm 6 m/s 761 mmHg 92%
08:00 +29°C° 0.1 mm 6 m/s 761 mmHg 84%
09:00 +30°C° 0.1 mm 6 m/s 762 mmHg 77%
10:00 +32°C° 0.1 mm 6 m/s 762 mmHg 69%
11:00 +33°C° 0 mm 6 m/s 762 mmHg 65%
12:00 +34°C° 0 mm 6 m/s 761 mmHg 61%
13:00 +34°C° 0 mm 5 m/s 761 mmHg 57%
14:00 +34°C° 0 mm 6 m/s 761 mmHg 59%
15:00 +34°C° 0 mm 6 m/s 760 mmHg 61%
16:00 +34°C° 0 mm 6 m/s 760 mmHg 63%
17:00 +33°C° 0.3 mm 6 m/s 760 mmHg 71%
18:00 +30°C° 0.3 mm 6 m/s 760 mmHg 78%
19:00 +28°C° 0.3 mm 6 m/s 761 mmHg 86%
20:00 +28°C° 0 mm 6 m/s 761 mmHg 87%
21:00 +28°C° 0 mm 6 m/s 761 mmHg 88%
22:00 +27°C° 0 mm 6 m/s 761 mmHg 89%
23:00 +27°C° 0 mm 6 m/s 761 mmHg 90%

4 Agosto, Quarta-feira

Tempo Temperatura Precipitação Vento Pressão Humidade
00:00 +27°C° 0 mm 7 m/s 761 mmHg 91%
01:00 +27°C° 0 mm 7 m/s 761 mmHg 92%
02:00 +26°C° 0 mm 7 m/s 761 mmHg 93%
03:00 +26°C° 0 mm 6 m/s 761 mmHg 93%
04:00 +26°C° 0 mm 6 m/s 760 mmHg 94%
05:00 +26°C° 0 mm 6 m/s 761 mmHg 93%
06:00 +27°C° 0 mm 5 m/s 761 mmHg 92%
07:00 +27°C° 0 mm 5 m/s 761 mmHg 91%
08:00 +29°C° 0 mm 5 m/s 761 mmHg 82%
09:00 +30°C° 0 mm 5 m/s 761 mmHg 73%
10:00 +33°C° 0 mm 5 m/s 762 mmHg 65%
11:00 +34°C° 0.1 mm 5 m/s 761 mmHg 61%
12:00 +35°C° 0.1 mm 5 m/s 761 mmHg 57%
13:00 +36°C° 0.1 mm 5 m/s 761 mmHg 53%
14:00 +35°C° 0.8 mm 5 m/s 761 mmHg 59%
15:00 +34°C° 0.8 mm 4 m/s 761 mmHg 64%
16:00 +33°C° 0.8 mm 4 m/s 761 mmHg 70%
17:00 +30°C° 0.5 mm 4 m/s 761 mmHg 74%
18:00 +29°C° 0.5 mm 5 m/s 761 mmHg 78%
19:00 +28°C° 0.5 mm 5 m/s 761 mmHg 82%
20:00 +28°C° 0.6 mm 5 m/s 761 mmHg 83%
21:00 +27°C° 0.6 mm 4 m/s 762 mmHg 84%
22:00 +27°C° 0.6 mm 4 m/s 762 mmHg 86%
23:00 +27°C° 0.2 mm 3 m/s 762 mmHg 86%

5 Agosto, Quinta-feira

Tempo Temperatura Precipitação Vento Pressão Humidade
00:00 +27°C° 0.2 mm 3 m/s 762 mmHg 87%
01:00 +26°C° 0.2 mm 3 m/s 762 mmHg 88%
02:00 +26°C° 0.3 mm 3 m/s 762 mmHg 88%
03:00 +26°C° 0.3 mm 2 m/s 762 mmHg 88%
04:00 +26°C° 0.3 mm 2 m/s 762 mmHg 88%
05:00 +27°C° 0 mm 3 m/s 762 mmHg 87%
06:00 +27°C° 0 mm 3 m/s 762 mmHg 86%
07:00 +28°C° 0 mm 3 m/s 763 mmHg 85%
08:00 +29°C° 0 mm 3 m/s 763 mmHg 78%
09:00 +31°C° 0 mm 3 m/s 763 mmHg 72%
10:00 +33°C° 0 mm 3 m/s 763 mmHg 66%
11:00 +34°C° 0 mm 3 m/s 763 mmHg 62%
12:00 +35°C° 0 mm 4 m/s 763 mmHg 59%
13:00 +36°C° 0 mm 4 m/s 763 mmHg 55%
14:00 +35°C° 0.1 mm 4 m/s 762 mmHg 62%
15:00 +33°C° 0.1 mm 5 m/s 762 mmHg 69%
16:00 +32°C° 0.1 mm 5 m/s 762 mmHg 76%
17:00 +30°C° 0.4 mm 6 m/s 762 mmHg 80%
18:00 +29°C° 0.4 mm 6 m/s 762 mmHg 83%
19:00 +28°C° 0.4 mm 6 m/s 762 mmHg 87%
20:00 +28°C° 0.5 mm 6 m/s 763 mmHg 88%
21:00 +27°C° 0.5 mm 6 m/s 763 mmHg 90%
22:00 +27°C° 0.5 mm 6 m/s 763 mmHg 91%
23:00 +27°C° 0.7 mm 6 m/s 763 mmHg 92%

6 Agosto, Sexta-feira

Tempo Temperatura Precipitação Vento Pressão Humidade
00:00 +27°C° 0.7 mm 6 m/s 763 mmHg 92%
01:00 +26°C° 0.7 mm 6 m/s 763 mmHg 92%
02:00 +26°C° 0.5 mm 5 m/s 763 mmHg 93%
03:00 +26°C° 0.5 mm 5 m/s 763 mmHg 93%
04:00 +26°C° 0.5 mm 5 m/s 762 mmHg 94%
05:00 +26°C° 0 mm 5 m/s 763 mmHg 93%
06:00 +27°C° 0 mm 5 m/s 763 mmHg 93%
07:00 +27°C° 0 mm 5 m/s 763 mmHg 92%
08:00 +29°C° 0 mm 5 m/s 763 mmHg 84%
09:00 +30°C° 0 mm 6 m/s 763 mmHg 77%
10:00 +33°C° 0 mm 6 m/s 763 mmHg 69%
11:00 +34°C° 0 mm 6 m/s 763 mmHg 65%
12:00 +35°C° 0 mm 7 m/s 763 mmHg 61%
13:00 +36°C° 0 mm 7 m/s 762 mmHg 57%
14:00 +35°C° 0 mm 7 m/s 762 mmHg 59%
15:00 +35°C° 0 mm 7 m/s 762 mmHg 62%
16:00 +34°C° 0 mm 7 m/s 762 mmHg 64%
17:00 +33°C° 0 mm 7 m/s 762 mmHg 69%
18:00 +30°C° 0 mm 7 m/s 762 mmHg 75%
19:00 +29°C° 0 mm 7 m/s 762 mmHg 80%
20:00 +28°C° 0.7 mm 7 m/s 762 mmHg 84%
21:00 +28°C° 0.7 mm 6 m/s 763 mmHg 88%
22:00 +27°C° 0.7 mm 6 m/s 763 mmHg 92%
23:00 +27°C° 1.6 mm 6 m/s 763 mmHg 92%
Mostrar mais

Necessitamos do seu Consentimento

A Meteoprog e os seus Fornecedores de Serviços podem armazenar e aceder a dados pessoais como cookies, identificadores do dispositivo ou outras tecnologias semelhantes existentes no seu dispositivo e processar estes dados para personalizar conteúdos e anúncios, assim como funcionalidades nas redes sociais e análise de tráfego.

  • Armazenar e/ou aceder a informações no seu dispositivo

    Os cookies, identificadores do dispositivo ou outras informações podem ser armazenados ou acedidos no seu dispositivo, para os fins acima indicados.

  • Anúncios e conteúdos personalizados, medição de anúncios e conteúdos, dados sobre o público-alvo e desenvolvimento de produtos

    Os anúncios e os conteúdos podem ser personalizados com base num perfil. Podem ser adicionados dados adicionais para uma maior personalização dos anúncios e dos conteúdos. A eficácia dos anúncios e dos conteúdos pode ser medida. Podem ser obtidas informações sobre o público que visualizou os anúncios e os conteúdos. Estes dados podem ser usados para desenvolver ou melhorar sistemas, softwares ou a experiência do utilizador.

Ao clicar em "Eu concordo”, permitirá o uso de cookies, identificadores do dispositivo e web beacons mencionados ou outras tecnologias semelhantes. As configurações do navegador do seu dispositivo podem ser alteradas.

Para certos fins, podem ser invocados interesses legítimos ao invés de consentimento. Pode ler mais informação sobre este assunto na nossa Política de Privacidade e Cookies.